Weather History for EHBK - July, 2013

Change the Weather History Date:

Friday, July 26, 2013

  Actual Average Record
Temperature  
Mean Temperature 74 °F -  
Max Temperature 82 °F 71 °F 93 °F (2006)
Min Temperature 67 °F 54 °F 48 °F (2015)
Cooling Degree Days 10    
Growing Degree Days 24 (Base 50)    
Moisture  
Dew Point 65 °F    
Average Humidity 73    
Maximum Humidity 88    
Minimum Humidity 49    
Precipitation  
Precipitation 0.00 in 0.09 in - ()
Sea Level Pressure  
Sea Level Pressure 29.92 in    
Wind  
Wind Speed 4 mph ()    
Max Wind Speed 14 mph    
Max Gust Speed -    
Visibility 7.2 miles    
Events Rain , Thunderstorm    
Averages and records for this station are not official NWS values.
T = Trace of Precipitation, MM = Missing Value Source: Averaged Metar Reports

Daily Weather History Graph

Daily Weather History Graph

Search for Another Location

Airport or City:

Trip Planner

Search our weather history database for the weather conditions in past years. The results will help you decide how hot, cold, wet, or windy it might be!

Date:

Astronomy

Jul. 26, 2013 Rise Set
Actual Time 5:54 AM CEST 9:31 PM CEST
Civil Twilight 5:13 AM CEST 10:12 PM CEST
Nautical Twilight 4:17 AM CEST 11:08 PM CEST
Astronomical Twilight 2:53 AM CEST 12:29 AM CEST
Moon 10:57 PM CEST (7/26) 10:49 AM CEST (7/26)
Length of Visible Light 16h 59m
Length of Day
15h 37m
Waning Gibbous, 82% of the Moon is Illuminated
Jul 26
Waning Gibbous
Jul 29
Last Quarter
Aug 6
New
Aug 14
First Quarter
Aug 21
Full

Hourly Weather History & Observations

Time (CEST) Temp. Heat Index Dew Point Humidity Pressure Visibility Wind Dir Wind Speed Gust Speed Precip Events Conditions
12:25 AM 69.8 °F - 62.6 °F 78% 29.98 in 6.2 mi Variable 2.3 mph - N/A   Unknown
12:55 AM 68.0 °F - 62.6 °F 83% 29.98 in 6.2 mi SSE 1.2 mph - N/A   Unknown
1:25 AM 68.0 °F - 64.4 °F 88% 29.98 in 6.2 mi SSE 3.5 mph - N/A   Unknown
1:55 AM 68.0 °F - 64.4 °F 88% 29.98 in 6.2 mi SSE 3.5 mph - N/A   Unknown
2:00 AM 68 °F - 64 °F 82% 29.97 in 11 mi SSE 2.2 mph - -   Partly Cloudy
2:25 AM 69.8 °F - 64.4 °F 83% 29.95 in 6.2 mi SE 2.3 mph - N/A   Unknown
2:55 AM 68.0 °F - 64.4 °F 88% 29.95 in 6.2 mi SE 3.5 mph - N/A   Unknown
3:25 AM 68.0 °F - 62.6 °F 83% 29.95 in 6.2 mi SE 3.5 mph - N/A   Unknown
3:55 AM 68.0 °F - 62.6 °F 83% 29.95 in 6.2 mi SE 2.3 mph - N/A   Unknown
4:25 AM 68.0 °F - 62.6 °F 83% 29.92 in 6.2 mi SE 4.6 mph - N/A   Unknown
4:55 AM 69.8 °F - 62.6 °F 78% 29.95 in 6.2 mi SE 5.8 mph - N/A   Unknown
5:00 AM 69 °F - 63 °F 75% 29.94 in 14 mi SE 4.5 mph - -   Overcast
5:25 AM 69.8 °F - 62.6 °F 78% 29.92 in 6.2 mi ESE 4.6 mph - N/A   Unknown
5:55 AM 69.8 °F - 62.6 °F 78% 29.92 in 6.2 mi ESE 6.9 mph - N/A   Unknown
6:25 AM 69.8 °F - 62.6 °F 78% 29.92 in 6.2 mi ESE 5.8 mph - N/A   Unknown
6:55 AM 69.8 °F - 62.6 °F 78% 29.92 in 6.2 mi ESE 6.9 mph - N/A   Unknown
7:25 AM 71.6 °F - 62.6 °F 73% 29.92 in 6.2 mi SE 5.8 mph - N/A   Unknown
7:55 AM 71.6 °F - 62.6 °F 73% 29.92 in 6.2 mi SE 4.6 mph - N/A   Unknown
8:00 AM 72 °F - 63 °F 65% 29.92 in 19 mi SSE 4.5 mph - -   Partly Cloudy
8:25 AM 71.6 °F - 62.6 °F 73% 29.92 in 6.2 mi SSE 6.9 mph - N/A Thunderstorm Thunderstorm
8:55 AM 71.6 °F - 62.6 °F 73% 29.92 in 6.2 mi South 6.9 mph - N/A   Unknown
9:25 AM 73.4 °F - 62.6 °F 69% 29.92 in 6.2 mi SSE 4.6 mph - N/A   Unknown
9:55 AM 75.2 °F - 64.4 °F 69% 29.92 in 6.2 mi Variable 2.3 mph - N/A   Unknown
10:25 AM 75.2 °F - 66.2 °F 73% 29.92 in 6.2 mi South 5.8 mph - N/A   Unknown
10:55 AM 73.4 °F - 66.2 °F 78% 29.95 in 6.2 mi SW 8.1 mph - N/A Rain Light Rain
11:00 AM 73 °F - 66 °F 72% 29.96 in 14 mi WSW 6.7 mph - - Rain Rain
11:25 AM 73.4 °F - 64.4 °F 73% 29.95 in 6.2 mi SW 8.1 mph - N/A   Unknown
11:55 AM 75.2 °F - 64.4 °F 69% 29.95 in 6.2 mi SW 13.8 mph - N/A   Unknown
12:25 PM 73.4 °F - 66.2 °F 78% 29.92 in 6.2 mi SSW 11.5 mph - N/A   Unknown
12:55 PM 73.4 °F - 66.2 °F 78% 29.92 in 6.2 mi South 10.4 mph - N/A   Unknown
1:25 PM 73.4 °F - 64.4 °F 73% 29.89 in 6.2 mi SE 9.2 mph - N/A   Drizzle
1:55 PM 73.4 °F - 66.2 °F 78% 29.92 in 6.2 mi West 5.8 mph - N/A   Light Drizzle
2:00 PM 73 °F - 66 °F 72% 29.92 in 16 mi WNW 4.5 mph - - Rain Rain
2:25 PM 73.4 °F - 66.2 °F 78% 29.92 in 6.2 mi NW 3.5 mph - N/A   Unknown
2:55 PM 75.2 °F - 64.4 °F 69% 29.92 in 6.2 mi WNW 3.5 mph - N/A   Unknown
3:25 PM 77.0 °F - 64.4 °F 65% 29.92 in 6.2 mi Variable 1.2 mph - N/A   Partly Cloudy
3:55 PM 80.6 °F 82.7 °F 66.2 °F 61% 29.92 in 6.2 mi Variable 2.3 mph - N/A   Unknown
4:25 PM 78.8 °F - 64.4 °F 61% 29.89 in 6.2 mi Variable 2.3 mph - N/A   Unknown
4:55 PM 80.6 °F 82.7 °F 66.2 °F 61% 29.89 in 6.2 mi Variable 3.5 mph - N/A   Partly Cloudy
5:00 PM 82 °F - 66 °F 49% 29.90 in 16 mi WNW 4.5 mph - -   Scattered Clouds
5:25 PM 80.6 °F 82.7 °F 66.2 °F 61% 29.89 in 6.2 mi Variable 3.5 mph - N/A   Partly Cloudy
5:55 PM 82.4 °F 84.6 °F 66.2 °F 58% 29.89 in 6.2 mi WSW 2.3 mph - N/A   Partly Cloudy
6:25 PM 82.4 °F 84.6 °F 66.2 °F 58% 29.89 in 6.2 mi Variable 3.5 mph - N/A   Unknown
6:55 PM 80.6 °F 82.7 °F 66.2 °F 61% 29.86 in 6.2 mi Variable 1.2 mph - N/A   Unknown
7:25 PM 80.6 °F 82.7 °F 66.2 °F 61% 29.89 in 6.2 mi NNE 3.5 mph - N/A   Partly Cloudy
7:55 PM 78.8 °F - 66.2 °F 65% 29.89 in 6.2 mi North 3.5 mph - N/A   Mostly Cloudy
8:00 PM 79 °F - 65 °F 54% 29.88 in 25 mi North 4.5 mph - -   Partly Cloudy
8:25 PM 78.8 °F - 66.2 °F 65% 29.89 in 6.2 mi ENE 5.8 mph - N/A   Unknown
8:55 PM 77.0 °F - 68.0 °F 74% 29.89 in 6.2 mi NE 4.6 mph - N/A   Unknown
9:25 PM 77.0 °F - 66.2 °F 69% 29.89 in 6.2 mi East 5.8 mph - N/A   Unknown
9:55 PM 75.2 °F - 66.2 °F 73% 29.89 in 6.2 mi ENE 3.5 mph - N/A   Unknown
10:25 PM 73.4 °F - 66.2 °F 78% 29.89 in 6.2 mi ENE 5.8 mph - N/A   Unknown
10:55 PM 73.4 °F - 66.2 °F 78% 29.89 in 6.2 mi East 4.6 mph - N/A   Unknown
11:00 PM 73 °F - 66 °F 74% 29.89 in 11 mi East 4.5 mph - -  
11:25 PM 71.6 °F - 66.2 °F 83% 29.89 in 6.2 mi ESE 4.6 mph - N/A   Unknown
11:55 PM 71.6 °F - 66.2 °F 83% 29.89 in 6.2 mi ESE 4.6 mph - N/A   Unknown